Year,Month,Day,Hour,Minute,Value (Times are PST for temperature in C)
2012,07,25,00,00,12.70
2012,07,25,00,01,12.70
2012,07,25,00,02,12.70
2012,07,25,00,03,12.70
2012,07,25,00,04,12.70
2012,07,25,00,05,12.60
2012,07,25,00,06,12.60
2012,07,25,00,07,12.60
2012,07,25,00,08,12.60
2012,07,25,00,09,12.60
2012,07,25,00,10,12.60
2012,07,25,00,11,12.60
2012,07,25,00,12,12.60
2012,07,25,00,13,12.50
2012,07,25,00,14,12.50
2012,07,25,00,15,12.50
2012,07,25,00,16,12.50
2012,07,25,00,17,12.40
2012,07,25,00,18,12.40
2012,07,25,00,19,12.40
2012,07,25,00,20,12.40
2012,07,25,00,21,12.40
2012,07,25,00,22,12.40
2012,07,25,00,23,12.30
2012,07,25,00,24,12.30
2012,07,25,00,25,12.30
2012,07,25,00,26,12.30
2012,07,25,00,27,12.30
2012,07,25,00,28,12.30
2012,07,25,00,29,12.30
2012,07,25,00,30,12.30
2012,07,25,00,31,12.30
2012,07,25,00,32,12.30
2012,07,25,00,33,12.30
2012,07,25,00,34,12.30
2012,07,25,00,35,12.20
2012,07,25,00,36,12.20
2012,07,25,00,37,12.20
2012,07,25,00,38,12.20
2012,07,25,00,39,12.20
2012,07,25,00,40,12.20
2012,07,25,00,41,12.20
2012,07,25,00,42,12.20
2012,07,25,00,43,12.20
2012,07,25,00,44,12.20
2012,07,25,00,45,12.10
2012,07,25,00,46,12.10
2012,07,25,00,47,12.10
2012,07,25,00,48,12.10
2012,07,25,00,49,12.10
2012,07,25,00,50,12.10
2012,07,25,00,51,12.10
2012,07,25,00,52,12.10
2012,07,25,00,53,12.00
2012,07,25,00,54,12.00
2012,07,25,00,55,12.00
2012,07,25,00,56,11.90
2012,07,25,00,57,11.90
2012,07,25,00,58,11.90
2012,07,25,00,59,11.90
2012,07,25,01,00,11.90
2012,07,25,01,01,11.90
2012,07,25,01,02,11.90
2012,07,25,01,03,11.90
2012,07,25,01,04,11.90
2012,07,25,01,05,11.80
2012,07,25,01,06,11.80
2012,07,25,01,07,11.80
2012,07,25,01,08,11.80
2012,07,25,01,09,11.80
2012,07,25,01,10,11.80
2012,07,25,01,11,11.80
2012,07,25,01,12,11.80
2012,07,25,01,13,11.80
2012,07,25,01,14,11.80
2012,07,25,01,15,11.80
2012,07,25,01,16,11.80
2012,07,25,01,17,11.80
2012,07,25,01,18,11.80
2012,07,25,01,19,11.80
2012,07,25,01,20,11.80
2012,07,25,01,21,11.80
2012,07,25,01,22,11.80
2012,07,25,01,23,11.80
2012,07,25,01,24,11.80
2012,07,25,01,25,11.80
2012,07,25,01,26,11.80
2012,07,25,01,27,11.80
2012,07,25,01,28,11.80
2012,07,25,01,29,11.80
2012,07,25,01,30,11.80
2012,07,25,01,31,11.80
2012,07,25,01,32,11.80
2012,07,25,01,33,11.80
2012,07,25,01,34,11.80
2012,07,25,01,35,11.70
2012,07,25,01,36,11.70
2012,07,25,01,37,11.70
2012,07,25,01,38,11.70
2012,07,25,01,39,11.70
2012,07,25,01,40,11.70
2012,07,25,01,41,11.70
2012,07,25,01,42,11.70
2012,07,25,01,43,11.70
2012,07,25,01,44,11.70
2012,07,25,01,45,11.70
2012,07,25,01,46,11.70
2012,07,25,01,47,11.70
2012,07,25,01,48,11.70
2012,07,25,01,49,11.70
2012,07,25,01,50,11.60
2012,07,25,01,51,11.60
2012,07,25,01,52,11.60
2012,07,25,01,53,11.60
2012,07,25,01,54,11.60
2012,07,25,01,55,11.60
2012,07,25,01,56,11.60
2012,07,25,01,57,11.60
2012,07,25,01,58,11.60
2012,07,25,01,59,11.60
2012,07,25,02,00,11.60
2012,07,25,02,01,11.60
2012,07,25,02,02,11.60
2012,07,25,02,03,11.60
2012,07,25,02,04,11.60
2012,07,25,02,05,11.60
2012,07,25,02,06,11.60
2012,07,25,02,07,11.60
2012,07,25,02,08,11.60
2012,07,25,02,09,11.60
2012,07,25,02,10,11.60
2012,07,25,02,11,11.60
2012,07,25,02,12,11.60
2012,07,25,02,13,11.60
2012,07,25,02,14,11.50
2012,07,25,02,15,11.50
2012,07,25,02,16,11.50
2012,07,25,02,17,11.50
2012,07,25,02,18,11.50
2012,07,25,02,19,11.50
2012,07,25,02,20,11.50
2012,07,25,02,21,11.50
2012,07,25,02,22,11.50
2012,07,25,02,23,11.40
2012,07,25,02,24,11.40
2012,07,25,02,25,11.40
2012,07,25,02,26,11.40
2012,07,25,02,27,11.40
2012,07,25,02,28,11.40
2012,07,25,02,29,11.40
2012,07,25,02,30,11.40
2012,07,25,02,31,11.40
2012,07,25,02,32,11.40
2012,07,25,02,33,11.40
2012,07,25,02,34,11.40
2012,07,25,02,35,11.40
2012,07,25,02,36,11.40
2012,07,25,02,37,11.40
2012,07,25,02,38,11.50
2012,07,25,02,39,11.50
2012,07,25,02,40,11.50
2012,07,25,02,41,11.50
2012,07,25,02,42,11.40
2012,07,25,02,43,11.40
2012,07,25,02,44,11.50
2012,07,25,02,45,11.40
2012,07,25,02,46,11.40
2012,07,25,02,47,11.40
2012,07,25,02,48,11.40
2012,07,25,02,49,11.40
2012,07,25,02,50,11.40
2012,07,25,02,51,11.40
2012,07,25,02,52,11.40
2012,07,25,02,53,11.40
2012,07,25,02,54,11.30
2012,07,25,02,55,11.30
2012,07,25,02,56,11.30
2012,07,25,02,57,11.30
2012,07,25,02,58,11.30
2012,07,25,02,59,11.30
2012,07,25,03,00,11.40
2012,07,25,03,01,11.40
2012,07,25,03,02,11.40
2012,07,25,03,03,11.40
2012,07,25,03,04,11.40
2012,07,25,03,05,11.40
2012,07,25,03,06,11.40
2012,07,25,03,07,11.40
2012,07,25,03,08,11.40
2012,07,25,03,09,11.40
2012,07,25,03,10,11.40
2012,07,25,03,11,11.40
2012,07,25,03,12,11.40
2012,07,25,03,13,11.40
2012,07,25,03,14,11.40
2012,07,25,03,15,11.30
2012,07,25,03,16,11.30
2012,07,25,03,17,11.30
2012,07,25,03,18,11.30
2012,07,25,03,19,11.30
2012,07,25,03,20,11.30
2012,07,25,03,21,11.30
2012,07,25,03,22,11.30
2012,07,25,03,23,11.40
2012,07,25,03,24,11.40
2012,07,25,03,25,11.40
2012,07,25,03,26,11.40
2012,07,25,03,27,11.40
2012,07,25,03,28,11.40
2012,07,25,03,29,11.40
2012,07,25,03,30,11.40
2012,07,25,03,31,11.40
2012,07,25,03,32,11.40
2012,07,25,03,33,11.30
2012,07,25,03,34,11.30
2012,07,25,03,35,11.30
2012,07,25,03,36,11.30
2012,07,25,03,37,11.30
2012,07,25,03,38,11.30
2012,07,25,03,39,11.30
2012,07,25,03,40,11.30
2012,07,25,03,41,11.30
2012,07,25,03,42,11.30
2012,07,25,03,43,11.30
2012,07,25,03,44,11.30
2012,07,25,03,45,11.30
2012,07,25,03,46,11.30
2012,07,25,03,47,11.30
2012,07,25,03,48,11.30
2012,07,25,03,49,11.30
2012,07,25,03,50,11.30
2012,07,25,03,51,11.30
2012,07,25,03,52,11.30
2012,07,25,03,53,11.30
2012,07,25,03,54,11.30
2012,07,25,03,55,11.30
2012,07,25,03,56,11.30
2012,07,25,03,57,11.30
2012,07,25,03,58,11.30
2012,07,25,03,59,11.30
2012,07,25,04,00,11.30
2012,07,25,04,01,11.30
2012,07,25,04,02,11.30
2012,07,25,04,03,11.30
2012,07,25,04,04,11.30
2012,07,25,04,05,11.30
2012,07,25,04,06,11.30
2012,07,25,04,07,11.30
2012,07,25,04,08,11.30
2012,07,25,04,09,11.30
2012,07,25,04,10,11.30
2012,07,25,04,11,11.30
2012,07,25,04,12,11.30
2012,07,25,04,13,11.30
2012,07,25,04,14,11.30
2012,07,25,04,15,11.30
2012,07,25,04,16,11.30
2012,07,25,04,17,11.30
2012,07,25,04,18,11.30
2012,07,25,04,19,11.30
2012,07,25,04,20,11.30
2012,07,25,04,21,11.30
2012,07,25,04,22,11.30
2012,07,25,04,23,11.30
2012,07,25,04,24,11.30
2012,07,25,04,25,11.30
2012,07,25,04,26,11.30
2012,07,25,04,27,11.20
2012,07,25,04,28,11.20
2012,07,25,04,29,11.20
2012,07,25,04,30,11.20
2012,07,25,04,31,11.20
2012,07,25,04,32,11.20
2012,07,25,04,33,11.20
2012,07,25,04,34,11.30
2012,07,25,04,35,11.30
2012,07,25,04,36,11.30
2012,07,25,04,37,11.30
2012,07,25,04,38,11.30
2012,07,25,04,39,11.30
2012,07,25,04,40,11.30
2012,07,25,04,41,11.30
2012,07,25,04,42,11.30
2012,07,25,04,43,11.30
2012,07,25,04,44,11.30
2012,07,25,04,45,11.30
2012,07,25,04,46,11.30
2012,07,25,04,47,11.30
2012,07,25,04,48,11.30
2012,07,25,04,49,11.30
2012,07,25,04,50,11.30
2012,07,25,04,51,11.30
2012,07,25,04,52,11.30
2012,07,25,04,53,11.30
2012,07,25,04,54,11.20
2012,07,25,04,55,11.20
2012,07,25,04,56,11.20
2012,07,25,04,57,11.20
2012,07,25,04,58,11.20
2012,07,25,04,59,11.20
2012,07,25,05,00,11.20
2012,07,25,05,01,11.20
2012,07,25,05,02,11.20
2012,07,25,05,03,11.20
2012,07,25,05,04,11.20
2012,07,25,05,05,11.20
2012,07,25,05,06,11.20
2012,07,25,05,07,11.20
2012,07,25,05,08,11.20
2012,07,25,05,09,11.20
2012,07,25,05,10,11.20
2012,07,25,05,11,11.20
2012,07,25,05,12,11.20
2012,07,25,05,13,11.20
2012,07,25,05,14,11.20
2012,07,25,05,15,11.20
2012,07,25,05,16,11.20
2012,07,25,05,17,11.20
2012,07,25,05,18,11.20
2012,07,25,05,19,11.20
2012,07,25,05,20,11.20
2012,07,25,05,21,11.20
2012,07,25,05,22,11.20
2012,07,25,05,23,11.20
2012,07,25,05,24,11.20
2012,07,25,05,25,11.10
2012,07,25,05,26,11.10
2012,07,25,05,27,11.10
2012,07,25,05,28,11.10
2012,07,25,05,29,11.10
2012,07,25,05,30,11.10
2012,07,25,05,31,11.10
2012,07,25,05,32,11.10
2012,07,25,05,33,11.10
2012,07,25,05,34,11.00
2012,07,25,05,35,11.00
2012,07,25,05,36,11.00
2012,07,25,05,37,11.00
2012,07,25,05,38,11.00
2012,07,25,05,39,11.00
2012,07,25,05,40,11.00
2012,07,25,05,41,11.00
2012,07,25,05,42,10.90
2012,07,25,05,43,10.90
2012,07,25,05,44,11.00
2012,07,25,05,45,11.00
2012,07,25,05,46,11.00
2012,07,25,05,47,11.00
2012,07,25,05,48,11.00
2012,07,25,05,49,11.00
2012,07,25,05,50,11.00
2012,07,25,05,51,11.00
2012,07,25,05,52,11.00
2012,07,25,05,53,11.00
2012,07,25,05,54,11.00
2012,07,25,05,55,11.00
2012,07,25,05,56,10.90
2012,07,25,05,57,10.90
2012,07,25,05,58,10.90
2012,07,25,05,59,10.90
2012,07,25,06,00,10.90
2012,07,25,06,01,10.90
2012,07,25,06,02,10.90
2012,07,25,06,03,10.90
2012,07,25,06,04,10.90
2012,07,25,06,05,10.90
2012,07,25,06,06,10.90
2012,07,25,06,07,10.90
2012,07,25,06,08,10.90
2012,07,25,06,09,10.90
2012,07,25,06,10,10.90
2012,07,25,06,11,10.90
2012,07,25,06,12,10.90
2012,07,25,06,13,10.90
2012,07,25,06,14,10.90
2012,07,25,06,15,10.90
2012,07,25,06,16,10.90
2012,07,25,06,17,10.90
2012,07,25,06,18,10.80
2012,07,25,06,19,10.80
2012,07,25,06,20,10.80
2012,07,25,06,21,10.80
2012,07,25,06,22,10.80
2012,07,25,06,23,10.80
2012,07,25,06,24,10.90
2012,07,25,06,25,10.90
2012,07,25,06,26,10.90
2012,07,25,06,27,10.90
2012,07,25,06,28,10.90
2012,07,25,06,29,10.90
2012,07,25,06,30,10.90
2012,07,25,06,31,10.90
2012,07,25,06,32,10.90
2012,07,25,06,33,10.90
2012,07,25,06,34,10.90
2012,07,25,06,35,10.90
2012,07,25,06,36,10.90
2012,07,25,06,37,10.90
2012,07,25,06,38,10.90
2012,07,25,06,39,10.90
2012,07,25,06,40,11.00
2012,07,25,06,41,11.00
2012,07,25,06,42,11.00
2012,07,25,06,43,11.00
2012,07,25,06,44,11.00
2012,07,25,06,45,11.00
2012,07,25,06,46,11.10
2012,07,25,06,47,11.10
2012,07,25,06,48,11.10
2012,07,25,06,49,11.10
2012,07,25,06,50,11.10
2012,07,25,06,51,11.10
2012,07,25,06,52,11.10
2012,07,25,06,53,11.10
2012,07,25,06,54,11.20
2012,07,25,06,55,11.20
2012,07,25,06,56,11.30
2012,07,25,06,57,11.30
2012,07,25,06,58,11.40
2012,07,25,06,59,11.50
2012,07,25,07,00,11.60
2012,07,25,07,01,11.70
2012,07,25,07,02,11.70
2012,07,25,07,03,11.80
2012,07,25,07,04,11.90
2012,07,25,07,05,12.00
2012,07,25,07,06,12.10
2012,07,25,07,07,12.20
2012,07,25,07,08,12.20
2012,07,25,07,09,12.30
2012,07,25,07,10,12.40
2012,07,25,07,11,12.50
2012,07,25,07,12,12.60
2012,07,25,07,13,12.70
2012,07,25,07,14,12.70
2012,07,25,07,15,12.80
2012,07,25,07,16,12.90
2012,07,25,07,17,13.00
2012,07,25,07,18,13.10
2012,07,25,07,19,13.20
2012,07,25,07,20,13.30
2012,07,25,07,21,13.40
2012,07,25,07,22,13.50
2012,07,25,07,23,13.60
2012,07,25,07,24,13.70
2012,07,25,07,25,13.80
2012,07,25,07,26,13.90
2012,07,25,07,27,14.00
2012,07,25,07,28,14.10
2012,07,25,07,29,14.20
2012,07,25,07,30,14.30
2012,07,25,07,31,14.40
2012,07,25,07,32,14.50
2012,07,25,07,33,14.60
2012,07,25,07,34,14.70
2012,07,25,07,35,14.90
2012,07,25,07,36,15.00
2012,07,25,07,37,15.00
2012,07,25,07,38,15.00
2012,07,25,07,39,15.00
2012,07,25,07,40,15.20
2012,07,25,07,41,15.20
2012,07,25,07,42,15.30
2012,07,25,07,43,15.40
2012,07,25,07,44,15.40
2012,07,25,07,45,15.50
2012,07,25,07,46,15.60
2012,07,25,07,47,15.70
2012,07,25,07,48,15.70
2012,07,25,07,49,15.80
2012,07,25,07,50,15.90
2012,07,25,07,51,16.00
2012,07,25,07,52,16.10
2012,07,25,07,53,16.20
2012,07,25,07,54,16.30
2012,07,25,07,55,16.40
2012,07,25,07,56,16.40
2012,07,25,07,57,16.50
2012,07,25,07,58,16.60
2012,07,25,07,59,16.70
2012,07,25,08,00,16.80
2012,07,25,08,01,16.90
2012,07,25,08,02,17.00
2012,07,25,08,03,17.00
2012,07,25,08,04,17.20
2012,07,25,08,05,17.30
2012,07,25,08,06,17.30
2012,07,25,08,07,17.40
2012,07,25,08,08,17.50
2012,07,25,08,09,17.50
2012,07,25,08,10,17.60
2012,07,25,08,11,17.60
2012,07,25,08,12,17.70
2012,07,25,08,13,17.80
2012,07,25,08,14,17.80
2012,07,25,08,15,17.90
2012,07,25,08,16,17.90
2012,07,25,08,17,18.00
2012,07,25,08,18,18.10
2012,07,25,08,19,18.10
2012,07,25,08,20,18.10
2012,07,25,08,21,18.10
2012,07,25,08,22,18.00
2012,07,25,08,23,18.10
2012,07,25,08,24,18.10
2012,07,25,08,25,18.10
2012,07,25,08,26,18.20
2012,07,25,08,27,18.30
2012,07,25,08,28,18.30
2012,07,25,08,29,18.40
2012,07,25,08,30,18.40
2012,07,25,08,31,18.50
2012,07,25,08,32,18.60
2012,07,25,08,33,18.60
2012,07,25,08,34,18.60
2012,07,25,08,35,18.60
2012,07,25,08,36,18.70
2012,07,25,08,37,18.80
2012,07,25,08,38,18.90
2012,07,25,08,39,18.90
2012,07,25,08,40,18.90
2012,07,25,08,41,18.90
2012,07,25,08,42,19.00
2012,07,25,08,43,19.00
2012,07,25,08,44,19.10
2012,07,25,08,45,19.20
2012,07,25,08,46,19.30
2012,07,25,08,47,19.30
2012,07,25,08,48,19.20
2012,07,25,08,49,19.20
2012,07,25,08,50,19.20
2012,07,25,08,51,19.20
2012,07,25,08,52,19.30
2012,07,25,08,53,19.30
2012,07,25,08,54,19.40
2012,07,25,08,55,19.40
2012,07,25,08,56,19.50
2012,07,25,08,57,19.60
2012,07,25,08,58,19.60
2012,07,25,08,59,19.60
2012,07,25,09,00,19.60
2012,07,25,09,01,19.50
2012,07,25,09,02,19.40
2012,07,25,09,03,19.30
2012,07,25,09,04,19.30
2012,07,25,09,05,19.20
2012,07,25,09,06,19.10
2012,07,25,09,07,19.10
2012,07,25,09,08,19.10
2012,07,25,09,09,19.10
2012,07,25,09,10,19.10
2012,07,25,09,11,19.10
2012,07,25,09,12,19.20
2012,07,25,09,13,19.20
2012,07,25,09,14,19.20
2012,07,25,09,15,19.30
2012,07,25,09,16,19.30
2012,07,25,09,17,19.40
2012,07,25,09,18,19.50
2012,07,25,09,19,19.50
2012,07,25,09,20,19.60
2012,07,25,09,21,19.60
2012,07,25,09,22,19.60
2012,07,25,09,23,19.70
2012,07,25,09,24,19.70
2012,07,25,09,25,19.70
2012,07,25,09,26,19.70
2012,07,25,09,27,19.80
2012,07,25,09,28,19.80
2012,07,25,09,29,19.80
2012,07,25,09,30,19.80
2012,07,25,09,31,19.80
2012,07,25,09,32,19.80
2012,07,25,09,33,19.80
2012,07,25,09,34,19.90
2012,07,25,09,35,19.90
2012,07,25,09,36,20.00
2012,07,25,09,37,20.00
2012,07,25,09,38,20.10
2012,07,25,09,39,20.20
2012,07,25,09,40,20.20
2012,07,25,09,41,20.30
2012,07,25,09,42,20.30
2012,07,25,09,43,20.30
2012,07,25,09,44,20.30
2012,07,25,09,45,20.30
2012,07,25,09,46,20.20
2012,07,25,09,47,20.20
2012,07,25,09,48,20.20
2012,07,25,09,49,20.20
2012,07,25,09,50,20.20
2012,07,25,09,51,20.30
2012,07,25,09,52,20.30
2012,07,25,09,53,20.20
2012,07,25,09,54,20.20
2012,07,25,09,55,20.20
2012,07,25,09,56,20.20
2012,07,25,09,57,20.30
2012,07,25,09,58,20.30
2012,07,25,09,59,20.30
2012,07,25,10,00,20.30
2012,07,25,10,01,20.30
2012,07,25,10,02,20.30
2012,07,25,10,03,20.30
2012,07,25,10,04,20.30
2012,07,25,10,05,20.30
2012,07,25,10,06,20.30
2012,07,25,10,07,20.30
2012,07,25,10,08,20.30
2012,07,25,10,09,20.40
2012,07,25,10,10,20.40
2012,07,25,10,11,20.50
2012,07,25,10,12,20.50
2012,07,25,10,13,20.50
2012,07,25,10,14,20.60
2012,07,25,10,15,20.60
2012,07,25,10,16,20.70
2012,07,25,10,17,20.60
2012,07,25,10,18,20.50
2012,07,25,10,19,20.40
2012,07,25,10,20,20.30
2012,07,25,10,21,20.30
2012,07,25,10,22,20.40
2012,07,25,10,23,20.50
2012,07,25,10,24,20.60
2012,07,25,10,25,20.60
2012,07,25,10,26,20.60
2012,07,25,10,27,20.70
2012,07,25,10,28,20.80
2012,07,25,10,29,20.90
2012,07,25,10,30,21.00
2012,07,25,10,31,21.10
2012,07,25,10,32,21.10
2012,07,25,10,33,21.00
2012,07,25,10,34,20.80
2012,07,25,10,35,20.70
2012,07,25,10,36,20.50
2012,07,25,10,37,20.30
2012,07,25,10,38,20.30
2012,07,25,10,39,20.40
2012,07,25,10,40,20.50
2012,07,25,10,41,20.60
2012,07,25,10,42,20.80
2012,07,25,10,43,20.80
2012,07,25,10,44,20.90
2012,07,25,10,45,21.00
2012,07,25,10,46,21.10
2012,07,25,10,47,21.10
2012,07,25,10,48,21.20
2012,07,25,10,49,21.20
2012,07,25,10,50,21.30
2012,07,25,10,51,21.30
2012,07,25,10,52,21.30
2012,07,25,10,53,21.40
2012,07,25,10,54,21.40
2012,07,25,10,55,21.50
2012,07,25,10,56,21.60
2012,07,25,10,57,21.60
2012,07,25,10,58,21.70
2012,07,25,10,59,21.70
2012,07,25,11,00,21.70
2012,07,25,11,01,21.70
2012,07,25,11,02,21.70
2012,07,25,11,03,21.70
2012,07,25,11,04,21.70
2012,07,25,11,05,21.70
2012,07,25,11,06,21.70
2012,07,25,11,07,21.70
2012,07,25,11,08,21.60
2012,07,25,11,09,21.70
2012,07,25,11,10,21.70
2012,07,25,11,11,21.70
2012,07,25,11,12,21.70
2012,07,25,11,13,21.70
2012,07,25,11,14,21.70
2012,07,25,11,15,21.70
2012,07,25,11,16,21.70
2012,07,25,11,17,21.70
2012,07,25,11,18,21.70
2012,07,25,11,19,21.70
2012,07,25,11,20,21.80
2012,07,25,11,21,21.70
2012,07,25,11,22,21.60
2012,07,25,11,23,21.50
2012,07,25,11,24,21.40
2012,07,25,11,25,21.40
2012,07,25,11,26,21.50
2012,07,25,11,27,21.60
2012,07,25,11,28,21.60
2012,07,25,11,29,21.60
2012,07,25,11,30,21.60
2012,07,25,11,31,21.60
2012,07,25,11,32,21.60
2012,07,25,11,33,21.60
2012,07,25,11,34,21.60
2012,07,25,11,35,21.60
2012,07,25,11,36,21.60
2012,07,25,11,37,21.70
2012,07,25,11,38,21.70
2012,07,25,11,39,21.70
2012,07,25,11,40,21.80
2012,07,25,11,41,21.80
2012,07,25,11,42,21.80
2012,07,25,11,43,21.80
2012,07,25,11,44,21.80
2012,07,25,11,45,21.80
2012,07,25,11,46,21.80
2012,07,25,11,47,21.90
2012,07,25,11,48,21.90
2012,07,25,11,49,21.90
2012,07,25,11,50,21.80
2012,07,25,11,51,21.80
2012,07,25,11,52,21.90
2012,07,25,11,53,21.90
2012,07,25,11,54,22.00
2012,07,25,11,55,22.00
2012,07,25,11,56,21.90
2012,07,25,11,57,21.90
2012,07,25,11,58,21.90
2012,07,25,11,59,22.00
2012,07,25,12,00,22.00
2012,07,25,12,01,21.90
2012,07,25,12,02,21.80
2012,07,25,12,03,21.80
2012,07,25,12,04,21.80
2012,07,25,12,05,21.70
2012,07,25,12,06,21.80
2012,07,25,12,07,21.80
2012,07,25,12,08,21.80
2012,07,25,12,09,21.70
2012,07,25,12,10,21.80
2012,07,25,12,11,21.80
2012,07,25,12,12,21.80
2012,07,25,12,13,21.70
2012,07,25,12,14,21.50
2012,07,25,12,15,21.40
2012,07,25,12,16,21.30
2012,07,25,12,17,21.30
2012,07,25,12,18,21.30
2012,07,25,12,19,21.40
2012,07,25,12,20,21.50
2012,07,25,12,21,21.50
2012,07,25,12,22,21.60
2012,07,25,12,23,21.60
2012,07,25,12,24,21.70
2012,07,25,12,25,21.70
2012,07,25,12,26,21.70
2012,07,25,12,27,21.70
2012,07,25,12,28,21.70
2012,07,25,12,29,21.80
2012,07,25,12,30,21.80
2012,07,25,12,31,21.90
2012,07,25,12,32,22.10
2012,07,25,12,33,22.10
2012,07,25,12,34,22.10
2012,07,25,12,35,22.20
2012,07,25,12,36,22.10
2012,07,25,12,37,21.90
2012,07,25,12,38,21.80
2012,07,25,12,39,21.70
2012,07,25,12,40,21.80
2012,07,25,12,41,21.80
2012,07,25,12,42,21.80
2012,07,25,12,43,21.80
2012,07,25,12,44,21.90
2012,07,25,12,45,21.80
2012,07,25,12,46,21.80
2012,07,25,12,47,21.80
2012,07,25,12,48,21.90
2012,07,25,12,49,22.00
2012,07,25,12,50,22.00
2012,07,25,12,51,22.20
2012,07,25,12,52,22.30
2012,07,25,12,53,22.40
2012,07,25,12,54,22.40
2012,07,25,12,55,22.30
2012,07,25,12,56,22.30
2012,07,25,12,57,22.30
2012,07,25,12,58,22.30
2012,07,25,12,59,22.30
2012,07,25,13,00,22.40
2012,07,25,13,01,22.40
2012,07,25,13,02,22.40
2012,07,25,13,03,22.40
2012,07,25,13,04,22.40
2012,07,25,13,05,22.40
2012,07,25,13,06,22.50
2012,07,25,13,07,22.50
2012,07,25,13,08,22.50
2012,07,25,13,09,22.40
2012,07,25,13,10,22.30
2012,07,25,13,11,22.30
2012,07,25,13,12,22.30
2012,07,25,13,13,22.30
2012,07,25,13,14,22.40
2012,07,25,13,15,22.50
2012,07,25,13,16,22.50
2012,07,25,13,17,22.60
2012,07,25,13,18,22.60
2012,07,25,13,19,22.60
2012,07,25,13,20,22.60
2012,07,25,13,21,22.60
2012,07,25,13,22,22.50
2012,07,25,13,23,22.50
2012,07,25,13,24,22.60
2012,07,25,13,25,22.60
2012,07,25,13,26,22.60
2012,07,25,13,27,22.60
2012,07,25,13,28,22.60
2012,07,25,13,29,22.60
2012,07,25,13,30,22.70
2012,07,25,13,31,22.80
2012,07,25,13,32,22.80
2012,07,25,13,33,22.90
2012,07,25,13,34,23.10
2012,07,25,13,35,23.20
2012,07,25,13,36,23.30
2012,07,25,13,37,23.30
2012,07,25,13,38,23.30
2012,07,25,13,39,23.20
2012,07,25,13,40,23.20
2012,07,25,13,41,23.10
2012,07,25,13,42,23.20
2012,07,25,13,43,23.20
2012,07,25,13,44,23.20
2012,07,25,13,45,23.20
2012,07,25,13,46,23.20
2012,07,25,13,47,23.20
2012,07,25,13,48,23.20
2012,07,25,13,49,23.30
2012,07,25,13,50,23.30
2012,07,25,13,51,23.30
2012,07,25,13,52,23.30
2012,07,25,13,53,23.30
2012,07,25,13,54,23.20
2012,07,25,13,55,23.30
2012,07,25,13,56,23.30
2012,07,25,13,57,23.40
2012,07,25,13,58,23.40
2012,07,25,13,59,23.40
2012,07,25,14,00,23.30
2012,07,25,14,01,23.30
2012,07,25,14,02,23.30
2012,07,25,14,03,23.30
2012,07,25,14,04,23.30
2012,07,25,14,05,23.40
2012,07,25,14,06,23.50
2012,07,25,14,07,23.60
2012,07,25,14,08,23.60
2012,07,25,14,09,23.50
2012,07,25,14,10,23.50
2012,07,25,14,11,23.60
2012,07,25,14,12,23.60
2012,07,25,14,13,23.60
2012,07,25,14,14,23.60
2012,07,25,14,15,23.50
2012,07,25,14,16,23.50
2012,07,25,14,17,23.60
2012,07,25,14,18,23.70
2012,07,25,14,19,23.70
2012,07,25,14,20,23.80
2012,07,25,14,21,23.80
2012,07,25,14,22,24.00
2012,07,25,14,23,24.00
2012,07,25,14,24,24.00
2012,07,25,14,25,23.90
2012,07,25,14,26,23.90
2012,07,25,14,27,23.90
2012,07,25,14,28,24.00
2012,07,25,14,29,24.10
2012,07,25,14,30,24.00
2012,07,25,14,31,23.90
2012,07,25,14,32,23.80
2012,07,25,14,33,23.80
2012,07,25,14,34,23.80
2012,07,25,14,35,23.90
2012,07,25,14,36,23.90
2012,07,25,14,37,24.00
2012,07,25,14,38,24.00
2012,07,25,14,39,24.10
2012,07,25,14,40,24.10
2012,07,25,14,41,24.00
2012,07,25,14,42,24.00
2012,07,25,14,43,23.90
2012,07,25,14,44,24.00
2012,07,25,14,45,23.90
2012,07,25,14,46,23.90
2012,07,25,14,47,24.00
2012,07,25,14,48,24.10
2012,07,25,14,49,24.10
2012,07,25,14,50,24.20
2012,07,25,14,51,24.20
2012,07,25,14,52,24.30
2012,07,25,14,53,24.20
2012,07,25,14,54,24.20
2012,07,25,14,55,24.20
2012,07,25,14,56,24.10
2012,07,25,14,57,24.10
2012,07,25,14,58,24.10
2012,07,25,14,59,24.10
2012,07,25,15,00,24.20
2012,07,25,15,01,24.20
2012,07,25,15,02,24.10
2012,07,25,15,03,24.10
2012,07,25,15,04,24.00
2012,07,25,15,05,24.10
2012,07,25,15,06,24.10
2012,07,25,15,07,24.20
2012,07,25,15,08,24.30
2012,07,25,15,09,24.30
2012,07,25,15,10,24.30
2012,07,25,15,11,24.20
2012,07,25,15,12,24.20
2012,07,25,15,13,24.10
2012,07,25,15,14,24.00
2012,07,25,15,15,24.00
2012,07,25,15,16,24.00
2012,07,25,15,17,24.10
2012,07,25,15,18,24.20
2012,07,25,15,19,24.20
2012,07,25,15,20,24.10
2012,07,25,15,21,24.10
2012,07,25,15,22,24.00
2012,07,25,15,23,24.00
2012,07,25,15,24,23.90
2012,07,25,15,25,23.90
2012,07,25,15,26,24.00
2012,07,25,15,27,24.00
2012,07,25,15,28,24.10
2012,07,25,15,29,24.20
2012,07,25,15,30,24.20
2012,07,25,15,31,24.20
2012,07,25,15,32,24.20
2012,07,25,15,33,24.20
2012,07,25,15,34,24.10
2012,07,25,15,35,24.10
2012,07,25,15,36,24.20
2012,07,25,15,37,24.20
2012,07,25,15,38,24.20
2012,07,25,15,39,24.20
2012,07,25,15,40,24.10
2012,07,25,15,41,24.00
2012,07,25,15,42,24.00
2012,07,25,15,43,24.00
2012,07,25,15,44,24.10
2012,07,25,15,45,24.00
2012,07,25,15,46,24.00
2012,07,25,15,47,24.00
2012,07,25,15,48,24.10
2012,07,25,15,49,24.10
2012,07,25,15,50,24.00
2012,07,25,15,51,24.00
2012,07,25,15,52,24.10
2012,07,25,15,53,24.10
2012,07,25,15,54,24.00
2012,07,25,15,55,24.00
2012,07,25,15,56,24.00
2012,07,25,15,57,23.90
2012,07,25,15,58,24.00
2012,07,25,15,59,24.00
2012,07,25,16,00,24.00
2012,07,25,16,01,24.00
2012,07,25,16,02,24.10
2012,07,25,16,03,24.10
2012,07,25,16,04,24.10
2012,07,25,16,05,24.20
2012,07,25,16,06,24.30
2012,07,25,16,07,24.40
2012,07,25,16,08,24.50
2012,07,25,16,09,24.60
2012,07,25,16,10,24.60
2012,07,25,16,11,24.50
2012,07,25,16,12,24.50
2012,07,25,16,13,24.40
2012,07,25,16,14,24.50
2012,07,25,16,15,24.50
2012,07,25,16,16,24.50
2012,07,25,16,17,24.60
2012,07,25,16,18,24.60
2012,07,25,16,19,24.70
2012,07,25,16,20,24.60
2012,07,25,16,21,24.60
2012,07,25,16,22,24.60
2012,07,25,16,23,24.60
2012,07,25,16,24,24.60
2012,07,25,16,25,24.60
2012,07,25,16,26,24.50
2012,07,25,16,27,24.50
2012,07,25,16,28,24.50
2012,07,25,16,29,24.60
2012,07,25,16,30,24.60
2012,07,25,16,31,24.60
2012,07,25,16,32,24.70
2012,07,25,16,33,24.80
2012,07,25,16,34,24.80
2012,07,25,16,35,24.80
2012,07,25,16,36,24.80
2012,07,25,16,37,24.90
2012,07,25,16,38,24.90
2012,07,25,16,39,24.90
2012,07,25,16,40,25.00
2012,07,25,16,41,25.00
2012,07,25,16,42,25.00
2012,07,25,16,43,24.90
2012,07,25,16,44,24.90
2012,07,25,16,45,24.90
2012,07,25,16,46,24.90
2012,07,25,16,47,24.90
2012,07,25,16,48,24.80
2012,07,25,16,49,24.80
2012,07,25,16,50,24.80
2012,07,25,16,51,24.80
2012,07,25,16,52,24.70
2012,07,25,16,53,24.70
2012,07,25,16,54,24.80
2012,07,25,16,55,24.80
2012,07,25,16,56,24.80
2012,07,25,16,57,24.80
2012,07,25,16,58,24.80
2012,07,25,16,59,24.70
2012,07,25,17,00,24.50
2012,07,25,17,01,24.50
2012,07,25,17,02,24.50
2012,07,25,17,03,24.50
2012,07,25,17,04,24.50
2012,07,25,17,05,24.40
2012,07,25,17,06,24.40
2012,07,25,17,07,24.40
2012,07,25,17,08,24.30
2012,07,25,17,09,24.30
2012,07,25,17,10,24.20
2012,07,25,17,11,24.20
2012,07,25,17,12,24.10
2012,07,25,17,13,24.10
2012,07,25,17,14,24.10
2012,07,25,17,15,24.10
2012,07,25,17,16,24.10
2012,07,25,17,17,24.10
2012,07,25,17,18,24.10
2012,07,25,17,19,24.10